Tracking 18630 objects as of 25-May-2017
HD Live streaming from Space Station
objects crossing your sky now

THORAD AGENA D DEB

Track THORAD AGENA D DEB now!
10-day predictions


NORAD ID: 4768
Int'l Code: 1970-025DN
Perigee: 985.0 km
Apogee: 1,031.2 km
Inclination: 100.2 °
Period: 105.1 minutes
Semi major axis: 7379 km
RCS: 0.064 m2 (small)
Launch date: April 8, 1970
Source: United States (US)
Launch site: AIR FORCE WESTERN TEST RANGE (AFWTR)

Note: This is SATELLITE DEBRIS
Your satellite tracking list
Your tracking list is empty





NASA's NSSDC Master Catalog

Two Line Element Set (TLE):
1  4768U 70025DN  17144.91621944 +.00000115 +00000-0 +18728-3 0  9998
2  4768 100.2042 319.3634 0031298 111.4887 023.5108 13.69602630344475
Source of the keplerian elements: AFSPC